Retour au catalogue

DELTA 1 DEB

ActifSSO
NORAD 42568·DEBRIS·🇺🇸 United States

Lancé Jul 23, 1972 depuis Vandenberg Space Force Base

Loading…

Prochains Passages (prochaines 24 heures)

TLE

FraisSource: Space-Track

Époque: Sep 11, 2026, 20:30 UTC

1 42568U 72058KB  26254.85438703  .00000285  00000-0  15405-3 0  9997
2 42568  98.9317 287.4234 0026862 351.2218   8.8484 14.20354724 92049

Suivez DELTA 1 DEB en temps réel avec AllMySat

Download on the App Store